Regional Weather Roundup
Issued by NWS Newport/Morehead, NC

Current Version | Previous Version | Text Only | Print | Product List | Glossary On
Versions: 1 2 3 4 5 6 7 8 9 10 11 12 13 14 15 16 17 18 19 20 21 22 23 24 25 26 27 28 29 30 31 32 33 34 35 36 37 38 39 40 41 42 43 44 45 46 47 48 49 50
406 ASUS42 KMHX 220825 RWRMHX WEATHER ROUNDUP FOR EASTERN NORTH CAROLINA NATIONAL WEATHER SERVICE NEWPORT/MOREHEAD CITY NC 400 AM EDT SAT JUL 22 2017 NOTE: "FAIR" INDICATES FEW OR NO CLOUDS BELOW 12,000 FEET WITH NO SIGNIFICANT WEATHER AND/OR OBSTRUCTIONS TO VISIBILITY NCZ015>017-031-032-045>047-102-103-220900- NORTH COAST CITY SKY/WX TMP DP RH WIND PRES REMARKS EDENTON PTCLDY 81 74 81 SW8 29.95S ELIZABETH CITY NOT AVBL KITTY HAWK MOSUNNY 80 73 78 CALM 29.93S MANTEO PTCLDY 80 74 81 W10 29.95S $$ NCZ045>047-081-094-103-104-220900- CENTRAL COAST CITY SKY/WX TMP DP RH WIND PRES REMARKS FRISCO CLEAR 77 74 90 W6 29.97F $$ NCZ095-097-098-100-101-220900- SOUTHERN COAST CITY SKY/WX TMP DP RH WIND PRES REMARKS BEAUFORT CLEAR 81 79 94 SW12 29.98S CEDAR ISLAND NOT AVBL JACKSONVILLE PTCLDY 76 76 100 SW3 29.97S PINEY ISLAND SUNNY N/A N/A N/A SW8 29.97S WILMINGTON CLEAR 77 77 100 SW7 29.98F $$ NCZ011>013-027>030-043-044-078>080-089-090>093-098-220900- COASTAL PLAIN CITY SKY/WX TMP DP RH WIND PRES REMARKS AHOSKIE N/A 75 72 91 S3 29.93F CLINTON MOCLDY 76 75 97 CALM 29.98S ELIZABETHTOWN NOT AVBL GOLDSBORO CLEAR 78 78 100 SW6 29.95S GREENVILLE MOCLDY 77 73 88 SW6 29.97S HAVELOCK CLEAR 78 73 84 SW7 29.98F KENANSVILLE CLEAR 75 73 94 CALM 29.97F KINSTON CLEAR 77 73 88 S7 29.97S NEW BERN CLEAR 76 74 93 SW5 29.98F RICHLANDS CLEAR 75 74 96 SW5 29.99S ROCKY MOUNT CLEAR 75 74 96 SW5 29.95F WASHINGTON PTCLDY 77 73 87 SW6 29.96S WHITEVILLE CLEAR 76 74 94 S3 29.98S $$ AMZ130-135-150-152-154-156-158-170-250-252-270-ANZ085-086-088-633-658-670-220900- MARINE OBSERVATIONS STATION/POSITION TIME TEMP WIND PRES WAVE SWELL AIR SEA DIR/SP/G HT/PER HT/PER (UTC) (F) (DEG/KT/KT) (MB) (FT/S) (FT/S) CHESAPEAKE LIGHT NOT AVBL 64 E VA BEACH 0750 80 80 230/ 16/ 17 1013.2 3/ 5 2/ 8 DUCK 0800 81 59 230/ 16/ 19 1013.0 2 E DUCK 0800 62 N/A 2/ 9 OREGON INLET 0800 81 84 220/ 15/ 18 1013.8 13E OREGON INLT 0748 80 N/A 3/ 5 2/14 HATTERAS CG 0800 78 78 240/ 6/ 8 1014.8 DIAMOND BUOY 0750 82 84 240/ 17/ 21 1014.7 5/ 5 2/ 9 CAPE LOOKOUT 0800 80 240/ 10/ 14 1015.0 BEAUFORT LAB 0800 80 81 240/ 5/ 8 1014.5 30 SE NEW RVR IN 0808 80 81 250/ 12/ 16 1015.5 30 SE NEW RVR IN 0813 81 N/A 4/ 4 27 SE WRIGHTSVLE 0808 81 81 240/ 12/ 16 1015.3 5 SE WRIGHTSVLE 0808 80 80 240/ 10/ 14 1015.4 225 S CAPE HAT 0750 82 83 220/ 14/ 16 1017.3 4/ 8 3/ 8 41 SE CHARLESTON 0810 82 84 210/ 14/ 16 1015.4 $$

USA.gov is the U.S. government's official web portal to all federal, state and local government web resources and services.